Other Public Products
Issued by NWS Grand Forks, ND

Home | Current Version | Previous Version | Text Only | Print | Product List | Glossary On
Versions: 1 2 3 4 5 6 7 8 9 10 11 12 13 14 15 16 17 18 19 20 21 22 23 24 25 26 27 28 29 30 31 32 33 34 35 36 37 38 39 40 41 42 43 44 45 46 47 48 49 50
000
FPUS83 KFGF 251431
OPUFGF
PRAIRIE TO PINES WEATHER ROUNDUP
NATIONAL WEATHER SERVICE EASTERN NORTH DAKOTA/GRAND FORKS ND
900 AM CDT THU APR 25 2019

 **SATELLITE DATA USED TO AUGMENT SKY COVER AT AUTOMATED STATIONS**
 *****  WEATHER ACROSS EASTERN NORTH DAKOTA  *****

CITY           SKY/WX    TMP DP  RH WIND       PRES   REMARKS
GRAND FORKS    FAIR      52  33  48 W14       29.88R
GRND FORKS AFB SUNNY     50  28  43 NW15      29.92R
GRND FORKS NWS   N/A     54  32  43 NW12      29.86R
BUXTON           N/A     53  40  61 W13         N/A
DEVILS LAKE    FAIR      46  31  55 W14       29.96R
FARGO          FAIR      53  33  46 NW7       29.89R
WAHPETON ARPT  FAIR      54  30  40 NW5       29.92R
$$

 *****  WEATHER ACROSS CENTRAL AND WESTERN NORTH DAKOTA  *****

CITY           SKY/WX    TMP DP  RH WIND       PRES   REMARKS
JAMESTOWN      FAIR      50  30  46 NW15G28   29.96R
BISMARCK       CLOUDY    50  28  42 N14G30    30.05R
MINOT          FAIR      50  28  42 W24G31    30.03R
MINOT AFB      FAIR      46  25  42 NW22G31   30.02R
GARRISON         N/A     47  33  58 NW24G31   30.05R
WILLISTON      PTSUNNY   44  20  38 NW17      30.15R
DICKINSON      PTSUNNY   46  31  55 NW17      30.10R
HETTINGER      FAIR      46  37  71 NW21G29   30.10R
$$

 *****  OTHER OBSERVATIONS NORTHEAST NORTH DAKOTA  *****

CITY           SKY/WX    TMP DP  RH WIND       PRES   REMARKS
WALHALLA       FAIR      54  28  37 W15G24    29.87F
LANGDON        FAIR      50  50 100 NW21G26   29.90F
CAVALIER       FAIR      55  28  35 NW14G21   29.87S
GRAFTON        FAIR      54  32  43 NW18      29.90S
CANDO          CLOUDY    50  32  50 W22       29.96S
FORT TOTTEN    NOT AVBL
ROLLA          FAIR      50  21  32 W36G43    29.93S
RUGBY          FAIR      48  32  53 W28       29.98R
 ***** THE ABOVE OBSERVATIONS ARE NON NWS ARE NOT QUALITY
        CONTROLLED AND MAY MIS-REPORT RAIN FOR SNOW...
$$

 *****  OTHER OBSERVATIONS SOUTHEAST NORTH DAKOTA *****

CITY           SKY/WX    TMP DP  RH WIND       PRES   REMARKS
COOPERSTOWN    FAIR      50  32  50 NW22G29   29.94S
VALLEY CITY    FAIR      52  30  43 NW16      29.96R
OAKES          FAIR      54  41  62 W7        29.94S
GWINNER          N/A     57  32  38 NW7       29.92S
SHEYENNE NWR     N/A     54  33  44 NW5       29.95S
BUFFALO          N/A     51  33  50 SW9         N/A
WYNDMERE       NOT AVBL
 ***** THE ABOVE OBSERVATIONS ARE NON NWS ARE NOT QUALITY
       CONTROLLED AND MAY MIS-REPORT RAIN FOR SNOW...
$$

  *****  WEATHER ACROSS NORTHERN MINNESOTA  *****

CITY           SKY/WX    TMP DP  RH WIND       PRES   REMARKS
FLAG ISLAND    FAIR      43  30  61 SE5       29.80F
WARROAD        FAIR      52  43  71 CALM      29.82F
ROSEAU         FAIR      52  39  62 SW6       29.82F
HALLOCK        FAIR      52  28  40 NW16      29.86R
THF RVR FALLS  FAIR      51  31  46 NW8       29.88R
HALSTAD        NOT AVBL
FOSSTON        FAIR      52  30  43 W5        29.88S
BAUDETTE       FAIR      49  36  61 CALM      29.82S
WASKISH        FAIR      46  36  66 W7        29.84S
CROOKSTON      FAIR      52  36  54 NW9       29.89S
$$
  *****  WEATHER ACROSS CENTRAL AND WEST MINNESOTA  *****

CITY           SKY/WX    TMP DP  RH WIND       PRES   REMARKS
BEMIDJI        FAIR      53  31  42 NW9       29.85S
PARK RAPIDS    FAIR      56  30  37 NW10      29.84F
WADENA         FAIR      55  34  44 NW9       29.87R
DETROIT LAKES  FAIR      54  32  43 NW13      29.90R
MOORHEAD       FAIR      54  34  47 NW5       29.90S
FERGUS FALLS   FAIR      54  36  50 NW7       29.88S
ELBOW LAKE     FAIR      53  35  50 NW7       29.90S
MORRIS MN      FAIR      54  39  58 N8        29.85S
STAPLES        FAIR      55  28  35 NW10      29.86S
WHEATON        FAIR      55  30  38 NW6       29.93S
$$
  *****  WEATHER ELSEWHERE ACROSS MINNESOTA  *****

CITY           SKY/WX    TMP DP  RH WIND       PRES   REMARKS
DULUTH         FAIR      55  37  50 N6        29.79F
INTRNTL FALLS  FAIR      52  34  50 VRB3      29.83R
ELY            FAIR      54  28  37 CALM      29.80S
CLOQUET        FAIR      55  32  41 N6        29.81R
BRAINERD       FAIR      56  35  45 NW6       29.84S
HIBBING        FAIR      53  33  46 N6        29.81R
ALEXANDRIA     FAIR      58  32  37 N9        29.89R
SAINT CLOUD    FAIR      54  36  50 NW6       29.84R
MINNEAPOLIS    CLOUDY    58  37  45 N3        29.82R
$$

  *****  WEATHER ACROSS SOUTH DAKOTA  *****

CITY           SKY/WX    TMP DP  RH WIND       PRES   REMARKS
SIOUX FALLS    CLOUDY    56  52  86 W5        29.91S
BROOKINGS      FAIR      54  44  69 NW8       29.93R
WATERTOWN      FAIR      55  36  48 N9        29.92S
HURON          FAIR      56  42  59 N9        29.96R
SISSETON         N/A     57  32  38 NW10      29.91R
ABERDEEN       FAIR      56  34  43 N8        29.96R
MITCHELL       FAIR      57  48  72 NW14      29.96R
PIERRE         FAIR      53  45  74 NW14      30.00R
MOBRIDGE       FAIR      50  39  66 NW13      29.99R
RAPID CITY     FAIR      51  40  65 NW18      30.12R
$$

  *****  SOME WEATHER IN NEARBY STATES *****

CITY           SKY/WX    TMP DP  RH WIND       PRES   REMARKS
GLASGOW MT     CLOUDY    41  20  43 NW10      30.25R
GREAT FALLS MT FAIR      37  27  67 NE9       30.30F
CHEYENNE WY    FAIR      44  34  67 NW10      30.21R
SCOTTSBLUFF NE FAIR      49  43  80 NW17      30.15R
OMAHA NE       CLOUDY    60  49  66 N24G36    29.84R
DES MOINES IA  FAIR      57  52  83 W5        29.80S HAZE
DAVENPORT IA   FOG       51  49  92 MISG      29.84R VSB 1/4
CHICAGO IL     FAIR      57  37  47 CALM      29.80F
EAU CLAIRE WI  CLOUDY    55  50  83 W5        29.77S
LA CROSSE WI   FAIR      55  45  68 SW7       29.79S
$$

  *****  SOME NATIONAL WEATHER *****

CITY           SKY/WX    TMP DP  RH WIND       PRES   REMARKS
LA GUARDIA NY  FAIR      54  37  52 NE7       29.98S
RALEIGH NC     PTSUNNY   71  57  61 CALM      29.90S
ATLANTA GA     CLOUDY    67  59  75 SW8       29.97R
NEW ORLEANS LA CLOUDY    74  69  85 S5        29.86R THUNDER
OKLAHOMA CITY  FAIR      56  56 100 NW7       29.83R
ALBUQUERQUE NM FAIR      56  35  45 N3        30.12R
SALT LAKE CITY FAIR      54  47  77 SE8       30.15R
LOS ANGELES CA CLOUDY    58  54  86 SE5       29.99R FOG
BOISE ID       FAIR      43  32  65 SE3       30.15R
SEATTLE WA     MOCLDY    45  38  76 N9        30.21F
$$

*** WEATHER ACROSS MANITOBA...SASKATCHEWAN AND ONTARIO ***
                ***ONTARIO***

CITY           SKY/WX    TMP DP  RH WIND       PRES   REMARKS
GERALDTON      NOT AVBL
THUNDER BAY    NOT AVBL
SIOUX LOOKOUT  NOT AVBL
TORONTO        NOT AVBL
BIG TROUT LK   NOT AVBL
PICKLE LAKE    NOT AVBL
DRYDEN         NOT AVBL
KENORA         NOT AVBL
$$
                *** MANITOBA***

CITY           SKY/WX    TMP DP  RH WIND       PRES   REMARKS
BRANDON        MOSUNNY   46  27  46 W25G35    29.90R
DAUPHIN        NOT AVBL
ISLAND LAKE    NOT AVBL
PILOT MOUND    NOT AVBL
THE PAS        NOT AVBL
THOMPSON       NOT AVBL
WINNIPEG       NOT AVBL
$$
                ***SASKATCHEWAN***

CITY           SKY/WX    TMP DP  RH WIND       PRES   REMARKS
ESTEVAN        NOT AVBL
KINDERSLEY     NOT AVBL
LLOYDMINSTER   NOT AVBL
PRINCE ALBERT  NOT AVBL
REGINA         NOT AVBL
YORKTON        NOT AVBL
N. BATTLEFORD  NOT AVBL
LA RONGE       NOT AVBL
SASKATOON      NOT AVBL


USA.gov is the U.S. government's official web portal to all federal, state and local government web resources and services.